| time (UTC) | temp C | wind direction | speed KPH | gust KPH | rain 1hr cm | rain 24hr cm | rain mn cm | humidity % | barometer mb |
| 20260504185534 | 13 | 45 | 1.6 | 3.2 | 0.00 | 0.30 | 0.00 | 46 | 1017.0 |
| 20260504184534 | 13 | 30 | 3.2 | 9.7 | 0.00 | 0.30 | 0.00 | 46 | 1017.0 |
| 20260504183534 | 13 | 47 | 4.8 | 9.7 | 0.00 | 0.30 | 0.00 | 46 | 1017.0 |
| 20260504182534 | 13 | 42 | 3.2 | 4.8 | 0.00 | 0.30 | 0.00 | 46 | 1017.0 |
| 20260504181534 | 13 | 56 | 4.8 | 11.3 | 0.00 | 0.30 | 0.00 | 47 | 1017.0 |
| 20260504180536 | 13 | 50 | 3.2 | 8.0 | 0.00 | 0.30 | 0.00 | 47 | 1016.0 |
| 20260504175535 | 13 | 32 | 3.2 | 11.3 | 0.00 | 0.30 | 0.00 | 46 | 1015.0 |
| 20260504174535 | 13 | 18 | 3.2 | 4.8 | 0.00 | 0.30 | 0.00 | 46 | 1015.0 |
| 20260504173535 | 13 | 14 | 8.0 | 12.9 | 0.00 | 0.30 | 0.00 | 46 | 1015.0 |
| 20260504172535 | 13 | 343 | 4.8 | 9.7 | 0.00 | 0.30 | 0.00 | 46 | 1015.0 |
| 20260504171535 | 13 | 63 | 3.2 | 3.2 | 0.00 | 0.30 | 0.00 | 46 | 1015.0 |
| 20260504170535 | 13 | 1 | 4.8 | 8.0 | 0.00 | 0.30 | 0.00 | 46 | 1015.0 |
| 20260504150534 | 16 | 65 | 9.7 | 12.9 | 0.00 | 0.30 | 0.00 | 47 | 1011.0 |
| 20260504140535 | 17 | 41 | 4.8 | 4.8 | 0.00 | 0.30 | 0.30 | 47 | 1010.0 |
| 20260504130535 | 18 | 338 | 4.8 | 4.8 | 0.00 | 0.30 | 0.30 | 46 | 1009.0 |
| 20260504110534 | 22 | 131 | 4.8 | 9.7 | 0.00 | 0.30 | 0.30 | 46 | 1003.0 |
| 20260504100535 | 22 | 292 | 0.0 | 0.0 | 0.00 | 0.30 | 0.30 | 52 | 1002.0 |
| 20260504081535 | 24 | 147 | 8.0 | 11.3 | 0.00 | 0.30 | 0.30 | 40 | 1000.0 |
| 20260504080535 | 24 | 291 | 4.8 | 11.3 | 0.00 | 0.30 | 0.30 | 39 | 999.0 |
| 20260504050534 | 28 | 157 | 14.5 | 24.1 | 0.00 | 0.30 | 0.30 | 52 | 997.0 |
| 20260504045534 | 28 | 189 | 12.9 | 19.3 | 0.00 | 0.30 | 0.30 | 51 | 996.0 |
| 20260504044534 | 29 | 221 | 8.0 | 11.3 | 0.00 | 0.30 | 0.30 | 50 | 996.0 |
| 20260504043534 | 29 | 240 | 9.7 | 16.1 | 0.00 | 0.30 | 0.30 | 50 | 997.0 |
| 20260504042534 | 29 | 201 | 11.3 | 19.3 | 0.00 | 0.30 | 0.30 | 50 | 997.0 |
| 20260504041534 | 30 | 201 | 8.0 | 9.7 | 0.00 | 0.30 | 0.30 | 48 | 997.0 |
| 20260504040534 | 30 | 147 | 8.0 | 9.7 | 0.00 | 0.30 | 0.30 | 49 | 997.0 |
| 20260504035534 | 30 | 140 | 9.7 | 11.3 | 0.00 | 0.30 | 0.30 | 48 | 997.0 |
| 20260504034534 | 29 | 132 | 11.3 | 16.1 | 0.00 | 0.30 | 0.30 | 49 | 997.0 |
| 20260504033534 | 30 | 205 | 9.7 | 14.5 | 0.00 | 0.30 | 0.30 | 50 | 997.0 |
| 20260504032536 | 30 | 151 | 9.7 | 12.9 | 0.00 | 0.30 | 0.30 | 51 | 998.0 |
| 20260504031536 | 30 | 150 | 11.3 | 14.5 | 0.00 | 0.30 | 0.30 | 51 | 998.0 |
| 20260504030535 | 31 | 176 | 9.7 | 11.3 | 0.00 | 0.30 | 0.30 | 50 | 998.0 |
| 20260504025535 | 31 | 128 | 4.8 | 8.0 | 0.00 | 0.30 | 0.30 | 50 | 999.0 |
| 20260504024535 | 31 | 215 | 9.7 | 14.5 | 0.00 | 0.30 | 0.30 | 49 | 999.0 |
| 20260504023535 | 31 | 94 | 8.0 | 9.7 | 0.00 | 0.30 | 0.30 | 52 | 999.0 |
| 20260504022535 | 29 | 206 | 4.8 | 8.0 | 0.00 | 0.30 | 0.30 | 58 | 999.0 |
| 20260504021535 | 28 | 185 | 9.7 | 12.9 | 0.00 | 0.30 | 0.30 | 58 | 999.0 |
| 20260504020535 | 30 | 154 | 8.0 | 12.9 | 0.00 | 0.30 | 0.30 | 58 | 998.0 |
| 20260504015535 | 29 | 179 | 8.0 | 9.7 | 0.00 | 0.30 | 0.30 | 59 | 999.0 |
| 20260504014535 | 29 | 228 | 12.9 | 16.1 | 0.00 | 0.30 | 0.30 | 59 | 999.0 |
| 20260504013535 | 30 | 221 | 8.0 | 11.3 | 0.00 | 0.30 | 0.30 | 59 | 999.0 |
| 20260504012534 | 29 | 177 | 8.0 | 14.5 | 0.00 | 0.30 | 0.30 | 59 | 999.0 |
| 20260504011534 | 28 | 181 | 9.7 | 12.9 | 0.00 | 0.30 | 0.30 | 60 | 999.0 |
| 20260504010534 | 28 | 231 | 9.7 | 11.3 | 0.00 | 0.30 | 0.30 | 63 | 999.0 |
| 20260504005534 | 28 | 213 | 11.3 | 16.1 | 0.00 | 0.30 | 0.30 | 63 | 999.0 |
| 20260504004534 | 28 | 199 | 11.3 | 19.3 | 0.00 | 0.30 | 0.30 | 66 | 999.0 |
| 20260504003534 | 27 | 133 | 8.0 | 11.3 | 0.00 | 0.30 | 0.30 | 72 | 999.0 |
| 20260504002534 | 28 | 170 | 9.7 | 19.3 | 0.00 | 0.30 | 0.30 | 71 | 999.0 |
| 20260504001534 | 28 | 232 | 4.8 | 9.7 | 0.00 | 0.30 | 0.30 | 72 | 999.0 |
| 20260504000534 | 27 | 164 | 9.7 | 11.3 | 0.00 | 0.30 | 0.30 | 74 | 999.0 |
| 20260503235534 | 26 | 210 | 9.7 | 9.7 | 0.00 | 0.30 | 0.30 | 79 | 999.0 |
| 20260503234534 | 25 | 204 | 9.7 | 20.9 | 0.00 | 0.30 | 0.30 | 86 | 999.0 |
| 20260503233801 | 23 | 161 | 11.3 | 12.9 | 0.00 | 0.30 | 0.30 | 88 | 999.0 |
| 20260503232800 | 23 | 234 | 9.7 | 12.9 | 0.00 | 0.30 | 0.30 | 90 | 999.0 |
| 20260503231801 | 23 | 202 | 12.9 | 20.9 | 0.00 | 0.30 | 0.30 | 91 | 999.0 |
| 20260503230801 | 23 | 90 | 11.3 | 14.5 | 0.00 | 0.30 | 0.30 | 91 | 999.0 |
| 20260503225800 | 23 | 222 | 9.7 | 12.9 | 0.00 | 0.30 | 0.30 | 92 | 999.0 |
| 20260503224800 | 23 | 112 | 8.0 | 12.9 | 0.00 | 0.30 | 0.30 | 94 | 999.0 |
| 20260503223800 | 22 | 231 | 8.0 | 11.3 | 0.00 | 0.30 | 0.30 | 95 | 999.0 |
| 20260503222800 | 22 | 248 | 8.0 | 4.8 | 0.00 | 0.30 | 0.30 | 95 | 998.0 |
| 20260503221800 | 22 | 201 | 8.0 | 14.5 | 0.00 | 0.30 | 0.30 | 96 | 998.0 |
| 20260503220800 | 22 | 184 | 11.3 | 14.5 | 0.00 | 0.30 | 0.30 | 98 | 999.0 |
| 20260503215800 | 22 | 203 | 9.7 | 12.9 | 0.00 | 0.30 | 0.30 | 98 | 999.0 |
| 20260503214800 | 22 | 257 | 8.0 | 11.3 | 0.00 | 0.30 | 0.30 | 98 | 999.0 |
| 20260503213800 | 22 | 190 | 9.7 | 9.7 | 0.00 | 0.30 | 0.30 | 98 | 998.0 |
| 20260503212800 | 21 | 276 | 11.3 | 19.3 | 0.00 | 0.30 | 0.30 | 98 | 999.0 |
| 20260503211800 | 21 | 158 | 9.7 | 20.9 | 0.10 | 0.30 | 0.30 | 98 | 999.0 |
| 20260503210800 | 21 | 42 | 9.7 | 8.0 | 0.20 | 0.30 | 0.30 | 98 | 999.0 |
| 20260503205759 | 21 | 220 | 14.5 | 16.1 | 0.20 | 0.30 | 0.30 | 98 | 999.0 |
| 20260503204759 | 21 | 111 | 12.9 | 19.3 | 0.20 | 0.30 | 0.30 | 98 | 999.0 |
| 20260503203801 | 21 | 257 | 9.7 | 19.3 | 0.20 | 0.30 | 0.30 | 98 | 999.0 |
| 20260503202801 | 21 | 207 | 12.9 | 22.5 | 0.20 | 0.30 | 0.30 | 98 | 999.0 |
| 20260503201801 | 21 | 177 | 11.3 | 14.5 | 0.20 | 0.20 | 0.20 | 98 | 999.0 |
| 20260503200801 | 21 | 221 | 8.0 | 8.0 | 0.10 | 0.10 | 0.10 | 98 | 1000.0 |
| 20260503195801 | 21 | 184 | 9.7 | 16.1 | 0.10 | 0.10 | 0.10 | 98 | 1000.0 |
| 20260503194801 | 20 | 221 | 8.0 | 8.0 | 0.10 | 0.10 | 0.10 | 98 | 1000.0 |
| 20260503193800 | 20 | 215 | 11.3 | 16.1 | 0.10 | 0.10 | 0.10 | 98 | 1000.0 |
| 20260503192800 | 20 | 189 | 11.3 | 14.5 | 0.10 | 0.10 | 0.10 | 98 | 1000.2 |
| 20260503191800 | 20 | 153 | 8.0 | 12.9 | 0.00 | 0.00 | 0.00 | 98 | 1001.0 |
| 20260503190800 | 20 | 172 | 4.8 | 11.3 | 0.00 | 0.00 | 0.00 | 98 | 1001.0 |